TimeAKDT,TemperatureF,Dew PointF,Humidity,Sea Level PressureIn,VisibilityMPH,Wind Direction,Wind SpeedMPH,Gust SpeedMPH,PrecipitationIn,Events,Conditions,WindDirDegrees,DateUTC
12:53 AM,24.1,19.0,81,30.06,10.0,East,5.8,-,N/A,,Clear,90,2013-10-02 08:53:00
1:53 AM,26.1,19.9,78,30.06,10.0,East,9.2,-,N/A,,Overcast,90,2013-10-02 09:53:00
2:53 AM,28.0,21.9,78,30.05,10.0,East,6.9,-,N/A,,Overcast,90,2013-10-02 10:53:00
3:53 AM,28.9,21.0,72,30.05,10.0,East,9.2,-,N/A,,Overcast,100,2013-10-02 11:53:00
4:53 AM,28.9,21.9,75,30.05,10.0,East,6.9,-,N/A,,Overcast,100,2013-10-02 12:53:00
5:53 AM,30.0,21.9,72,30.04,10.0,East,8.1,-,N/A,,Overcast,90,2013-10-02 13:53:00
6:53 AM,28.9,21.9,75,30.04,10.0,East,6.9,-,N/A,,Overcast,100,2013-10-02 14:53:00
7:53 AM,30.0,21.9,72,30.04,10.0,East,12.7,-,N/A,,Overcast,80,2013-10-02 15:53:00
8:53 AM,28.9,21.9,75,30.05,10.0,East,11.5,-,N/A,,Overcast,80,2013-10-02 16:53:00
9:53 AM,28.9,21.9,75,30.05,10.0,East,9.2,-,N/A,,Overcast,80,2013-10-02 17:53:00
10:53 AM,28.9,23.0,78,30.05,10.0,East,8.1,-,N/A,,Overcast,80,2013-10-02 18:53:00
11:53 AM,30.0,21.9,72,30.05,10.0,East,10.4,-,N/A,,Overcast,90,2013-10-02 19:53:00
12:53 PM,30.0,21.9,72,30.05,10.0,East,13.8,-,N/A,,Overcast,80,2013-10-02 20:53:00
1:53 PM,30.0,21.0,69,30.05,10.0,East,8.1,-,N/A,,Overcast,90,2013-10-02 21:53:00
2:53 PM,30.9,21.9,69,30.05,10.0,East,11.5,-,N/A,,Overcast,80,2013-10-02 22:53:00
3:53 PM,30.9,21.9,69,30.04,10.0,East,8.1,-,N/A,,Overcast,80,2013-10-02 23:53:00
4:53 PM,32.0,21.9,66,30.04,10.0,East,4.6,-,N/A,,Overcast,80,2013-10-03 00:53:00
5:53 PM,32.0,23.0,69,30.03,10.0,ENE,6.9,-,N/A,,Overcast,60,2013-10-03 01:53:00
6:53 PM,32.0,23.0,69,30.03,10.0,East,8.1,-,N/A,,Overcast,80,2013-10-03 02:53:00
7:53 PM,30.9,23.0,72,30.04,10.0,NE,9.2,-,N/A,,Overcast,50,2013-10-03 03:53:00
8:53 PM,30.0,23.0,75,30.03,10.0,ENE,12.7,-,N/A,,Overcast,60,2013-10-03 04:53:00
9:53 PM,30.0,23.0,75,30.02,10.0,NE,9.2,-,N/A,,Overcast,50,2013-10-03 05:53:00
10:53 PM,30.0,23.0,75,30.02,10.0,NNE,10.4,-,N/A,,Overcast,30,2013-10-03 06:53:00
11:53 PM,28.9,23.0,78,30.03,10.0,North,8.1,-,N/A,,Overcast,10,2013-10-03 07:53:00